Printer-friendly version

IAU Minor Planet Center

Minor Planet Center

MPEC 2006-S75 : 2006 SJ134

The following Minor Planet Electronic Circular may be linked-to from your own Web pages, but must not otherwise be redistributed electronically.


Read MPEC 2006-S74 Read MPEC 2006-S76


M.P.E.C. 2006-S75                                Issued 2006 Sept. 27, 18:21 UT

     The Minor Planet Electronic Circulars contain information on unusual
         minor planets and routine data on comets.  They are published
   on behalf of Commission 20 of the International Astronomical Union by the
          Minor Planet Center, Smithsonian Astrophysical Observatory,
                          Cambridge, MA 02138, U.S.A.

                  Supported in part by the Brinson Foundation
                  Supported in part by the TABASGO Foundation
             Prepared using the Tamkin Foundation Computer Network

                              MPC@CFA.HARVARD.EDU
          URL http://cfa-www.harvard.edu/iau/mpc.html  ISSN 1523-6714

                                  2006 SJ134

Observations:
     K06SD4J* C2006 09 26.63564 04 45 24.01 -37 20 50.5          18.9 V ES075E12
     K06SD4J  C2006 09 26.64421 04 45 25.81 -37 21 03.4          18.9 V ES075E12
     K06SD4J  C2006 09 26.65282 04 45 27.68 -37 21 16.2          18.9 V ES075E12
     K06SD4J  C2006 09 26.68544 04 45 34.43 -37 22 04.4          18.9 V ES075E12
     K06SD4J  C2006 09 26.68610 04 45 34.56 -37 22 05.1          19.3 V ES075E12
     K06SD4J  C2006 09 26.68675 04 45 34.72 -37 22 06.8          19.4 V ES075E12
     K06SD4J  C2006 09 27.73572 04 49 18.33 -37 47 11.2          19.1 V ES075E12
     K06SD4J  C2006 09 27.73640 04 49 18.53 -37 47 12.8          19.2 V ES075E12
     K06SD4J  C2006 09 27.73704 04 49 18.64 -37 47 13.8          19.1 V ES075E12

Observer details:
E12 Siding Spring Survey.  Observer R. H. McNaught.  Measurers E. C. Beshore,
    E. J. Christensen, G. J. Garradd, A. R. Gibbs, A. D. Grauer, R. E. Hill,
    R. A. Kowalski, S. M. Larson, R. H. McNaught.  0.5-m Uppsala Schmidt + CCD.

Orbital elements:
2006 SJ134                                               Earth MOID = 0.4483 AU
Epoch 2006 Sept. 22.0 TT = JDT 2454000.5                MPC
M 345.25133              (2000.0)            P               Q
n   0.30664421     Peri.  279.85302     +0.50559785     -0.80735611
a   2.1779415      Node   135.14784     +0.85793116     +0.50776079
e   0.4446808      Incl.   25.55262     -0.09124116     +0.30059124
P   3.21           H   17.9           G   0.15           U   9
Residuals in seconds of arc
060926 E12  0.2-  0.1+    060926 E12  0.1-  0.1+    060927 E12  0.4-  0.4+
060926 E12  0.2-  0.1-    060926 E12  0.2-  0.4+    060927 E12  0.3+  0.2-
060926 E12  0.6+  0.1-    060926 E12  0.1+  0.4-    060927 E12  0.1+  0.3-

Ephemeris:
2006 SJ134               a,e,i = 2.18, 0.44, 26                  q = 1.2095
Date    TT    R. A. (2000) Decl.     Delta      r     Elong.  Phase     V
2006 09 22    04 28.61   -35 22.8    0.583    1.306   107.9    47.0    19.1
2006 10 02    05 04.18   -39 22.5    0.574    1.272   104.4    49.7    19.1
2006 10 12    05 36.73   -42 23.7    0.570    1.244   101.5    51.8    19.1
2006 10 22    06 04.94   -44 26.3    0.567    1.224    99.5    53.3    19.1
2006 11 01    06 27.92   -45 32.5    0.561    1.212    98.8    54.0    19.0
2006 11 11    06 45.32   -45 43.5    0.550    1.210    99.5    53.8    19.0
2006 11 21    06 56.89   -44 55.9    0.534    1.216   101.9    52.7    18.9
2006 12 01    07 02.72   -42 57.0    0.512    1.231   106.1    50.3    18.8
2006 12 11    07 03.42   -39 26.7    0.488    1.254   112.3    46.6    18.6
2006 12 21    07 00.02   -34 00.5    0.465    1.284   120.5    41.3    18.4
2006 12 31    06 54.43   -26 20.4    0.451    1.321   130.4    34.5    18.2
2007 01 10    06 48.96   -16 43.6    0.454    1.364   140.3    27.4    18.1
2007 01 20    06 45.56   -06 15.0    0.480    1.411   146.9    22.4    18.1
2007 01 30    06 45.62   +03 36.9    0.534    1.461   146.8    21.7    18.4
2007 02 09    06 49.59   +11 49.3    0.613    1.514   141.2    24.1    18.9
2007 02 19    06 57.24   +18 06.5    0.715    1.569   133.6    27.1    19.4
2007 03 01    07 08.13   +22 40.5    0.834    1.626   125.8    29.6    19.9
2007 03 11    07 21.56   +25 51.9    0.967    1.683   118.3    31.3    20.3
2007 03 21    07 36.91   +27 59.6    1.111    1.741   111.3    32.2    20.7
2007 03 31    07 53.66   +29 18.5    1.262    1.799   104.8    32.5    21.1
2007 04 10    08 11.32   +29 59.8    1.419    1.856    98.7    32.2    21.4
2007 04 20    08 29.54   +30 11.5    1.580    1.913    92.8    31.6    21.6
2007 04 30    08 48.06   +29 59.6    1.743    1.970    87.2    30.7    21.9

Timothy B. Spahr             (C) Copyright 2006 MPC           M.P.E.C. 2006-S75

Read MPEC 2006-S74 Read MPEC 2006-S76


Our Web policy. Index to the CBAT/MPC/ICQ pages.


Valid HTML 4.01!